Location: Melbourne
(37.8120°S, 144.9677°E)
Time: 12:58:08
(UTC+10:00)

ISS - Visible Passes

Search period start: 27 August 2016 00:00
Search period end: 06 September 2016 00:00
Orbit: 402 x 406 km, 51.6° (Epoch: 27 August)

Date Brightness Start Highest point End Pass type
(mag) Time Alt. Az. Time Alt. Az. Time Alt. Az.
28 Aug -0.3 20:08:44 10° NW 20:09:09 13° NW 20:09:09 13° NW visible
29 Aug -2.8 19:16:32 10° NNW 19:19:39 41° NE 19:19:39 41° NE visible
30 Aug -1.7 18:24:49 10° N 18:27:20 20° NE 18:29:52 10° E visible
30 Aug -1.4 20:00:31 10° WNW 20:02:42 30° WSW 20:02:42 30° WSW visible
31 Aug -3.2 19:07:48 10° NW 19:11:05 73° SW 19:12:55 24° SE visible
01 Sep -1.0 19:52:47 10° WSW 19:55:19 20° SSW 19:55:39 20° SSW visible
02 Sep -1.7 18:59:38 10° W 19:02:38 31° SSW 19:05:37 10° SSE visible
03 Sep -0.5 19:45:31 10° SW 19:47:05 13° SSW 19:48:07 11° S visible
04 Sep -0.8 18:51:57 10° WSW 18:54:17 18° SSW 18:56:38 10° SSE visible
